[[{"header":{"parameterUnit":"m.s-1","parameterCategory":1,"la1":30.2991,"la2":30.254,"lo1":-89.0895,"lo2":-89.0444,"dy":0.0017,"dx":0.0017,"nx":28,"ny":28,"refTime":"2024-03-13T09:00:00:Z","depth":0,"parameterNumber":2,"parameterNumberName":"U-component_of_WINDS"},"data":[0,0,0,0,0,0,0,0,0,0,0,0,0,0,0,0,0,0,0,0,0,0,0,0,0,0,0,0,0,0,0,0,0,0,0,0,0,0,0,0,0,0,0,0,0,0,0,0,0,0,0,0,0,0,0,0,0,0,-4.542,-4.5421,0,-4.5459,-4.546,-4.546,-4.5376,-4.5374,-4.5371,-4.5368,-4.5407,-4.5411,-4.5414,0,0,0,0,0,0,0,0,0,0,0,0,0,-4.5273,-4.5276,-4.542,-4.5421,-4.5421,-4.5459,-4.546,-4.546,-4.5377,-4.5374,-4.537,-4.5367,-4.5406,-4.541,-4.5415,0,0,0,0,0,0,0,0,0,0,0,0,0,-4.5327,-4.5278,-4.542,-4.5384,-4.5381,-4.5459,-4.546,-4.5461,-4.5378,-4.5374,-4.5369,-4.5366,-4.5405,-4.541,-4.5415,-4.5529,0,0,-4.5432,-4.5434,0,0,0,0,0,0,0,0,-4.5324,-4.5333,-4.5389,-4.5387,-4.5384,-4.5409,-4.5422,-4.5484,-4.5379,-4.5379,-4.5368,-4.5364,-4.5411,-4.5416,-4.5432,-4.5531,-4.5533,-4.5432,-4.5435,-4.5438,-4.5439,0,0,0,0,0,0,0,-4.5321,-4.5331,-4.5436,-4.539,-4.5387,-4.5366,-4.5369,-4.5433,-4.5417,-4.5379,-4.5373,-4.5379,-4.5409,-4.5427,-4.5432,-4.5533,-4.5432,-4.5437,-4.544,-4.5442,-4.5729,-4.5733,0,0,0,0,0,0,-4.5322,-4.5328,-4.5434,-4.5437,-4.5344,-4.5372,-4.5376,-4.5405,-4.5416,-4.5414,-4.5382,-4.5375,-4.542,-4.5426,-4.5433,-4.5567,-4.5437,-4.5442,-4.5446,-4.5724,-4.573,-4.5735,0,0,0,0,0,0,-4.5319,-4.5332,-4.5433,-4.5381,-4.5392,-4.5379,-4.5413,-4.5408,-4.5426,-4.5419,-4.5415,-4.5403,-4.5417,-4.5426,-4.5506,-4.5567,-4.5445,-4.545,-4.5719,-4.5726,-4.5732,-4.5836,0,0,0,0,0,0,-4.5315,-4.5331,-4.5374,-4.5383,-4.5395,-4.5505,-4.5416,-4.5412,-4.5435,-4.5426,-4.5438,-4.5436,-4.5414,-4.5499,-4.5512,-4.5572,-4.5454,-4.5714,-4.5722,-4.573,-4.5827,-4.5845,-4.5861,0,0,0,0,0,-4.531,-4.5402,-4.5377,-4.539,-4.5449,-4.5509,-4.5516,-4.549,-4.5441,-4.5484,-4.548,-4.5436,-4.5559,-4.5508,-4.5521,-4.5585,-4.571,-4.572,-4.5729,-4.5819,-4.5841,-4.586,0,0,0,0,0,0,-4.54,-4.5402,-4.5375,-4.5472,-4.5491,-4.5495,-4.5548,-4.5514,-4.5547,-4.5537,-4.5503,-4.5506,-4.5593,-4.5597,-4.554,-4.5696,-4.5626,-4.5639,-4.5689,-4.5711,-4.5727,-4.5723,-4.5458,0,0,0,0,0,-4.5431,-4.548,-4.5479,-4.5565,-4.5576,-4.5561,-4.5586,-4.5565,-4.5583,-4.559,-4.5592,-4.5611,-4.5654,-4.5683,-4.5722,-4.5828,-4.5829,-4.5879,-4.5896,-4.591,-4.592,-4.5977,-4.5998,-4.5767,-4.5767,-4.5767,0,0,-4.5496,-4.5503,-4.5536,-4.5584,-4.5596,-4.5647,-4.5568,-4.5626,-4.5663,-4.5599,-4.5674,-4.5677,-4.5696,-4.579,-4.5831,-4.5796,-4.5985,-4.5922,-4.5934,-4.5937,-4.5989,-4.6011,-4.603,-4.5774,-4.5773,-4.5772,0,0,-4.5639,-4.5651,-4.5723,-4.5738,-4.5758,-4.5747,-4.5765,-4.5775,-4.5774,-4.585,-4.5803,-4.5848,-4.5923,-4.5938,-4.5956,-4.6109,-4.607,-4.6123,-4.6211,-4.6266,-4.6284,-4.63,-4.6353,-4.6373,-4.6135,-4.6135,-4.6135,0,-4.5716,-4.5792,-4.5764,-4.5825,-4.5847,-4.5793,-4.5866,-4.5882,-4.5914,-4.593,-4.5891,-4.5985,-4.5994,-4.609,-4.6128,-4.6145,-4.6163,-4.612,-4.6284,-4.6299,-4.6314,-4.6364,-4.6384,-4.6141,-4.614,-4.614,-4.6139,0,-4.5886,-4.5939,-4.5995,-4.6028,-4.6057,-4.6124,-4.6106,-4.6139,-4.6116,-4.611,-4.6189,-4.6199,-4.6239,-4.6261,-4.6239,-4.6355,-4.6332,-4.6289,-4.6218,-4.6342,-4.6389,-4.6408,-4.615,-4.6148,-4.6146,-4.6144,0,0,-4.6083,-4.6102,-4.6123,-4.6137,-4.6157,-4.6198,-4.6263,-4.6303,-4.6331,-4.6357,-4.641,-4.6476,-4.6437,-4.6457,-4.6436,-4.6485,-4.6605,-4.6436,-4.6436,-4.6465,-4.6732,-4.6763,-4.6785,-4.658,-4.6584,-4.6587,-4.673,0,-4.6223,-4.6335,-4.6313,-4.6422,-4.6471,-4.6422,-4.6479,-4.6497,-4.6494,-4.6535,-4.6532,-4.6579,-4.6524,-4.6536,-4.6583,-4.658,-4.6657,-4.657,-4.6628,-4.663,-4.6622,-4.681,-4.6842,-4.6977,-4.6748,-4.6751,-4.6754,0,-4.6401,-4.6434,-4.6548,-4.6561,-4.6581,-4.6632,-4.6667,-4.6708,-4.6728,-4.6723,-4.6748,-4.6718,-4.6783,-4.6714,-4.6802,-4.6743,-4.6766,-4.6769,-4.6774,-4.6776,-4.6697,-4.6815,-4.7019,-4.7038,-4.6782,-4.678,-4.6778,0,-4.6532,-4.6604,-4.6682,-4.6696,-4.6714,-4.6751,-4.676,-4.6777,-4.6803,-4.6834,-4.6851,-4.689,-4.6911,-4.6942,-4.6924,-4.6875,-4.7016,-4.6945,-4.7012,-4.7013,-4.7041,-4.7039,-4.7249,-4.7061,-4.706,-4.706,-4.706,0,-4.6689,-4.676,-4.6741,-4.6788,-4.6867,-4.6842,-4.6921,-4.6924,-4.694,-4.6987,-4.6948,-4.6993,-4.6968,-4.7012,-4.6999,-4.7074,-4.7084,-4.7081,-4.7076,-4.7083,-4.7083,-4.7095,-4.7084,-4.7065,-4.7064,-4.7063,-4.7062,0,-4.6846,-4.6836,-4.6917,-4.6928,-4.6933,-4.699,-4.6999,-4.7044,-4.7039,-4.71,-4.7113,-4.7105,-4.7155,-4.7141,-4.7195,-4.7186,-4.728,-4.7265,-4.7273,-4.7268,-4.7335,-4.7328,-4.7558,-4.7587,-4.7383,-4.7385,-4.7387,0,-4.6945,-4.6999,-4.7017,-4.7046,-4.7058,-4.7106,-4.7133,-4.7112,-4.7141,-4.717,-4.7211,-4.7257,-4.7293,-4.7374,-4.7373,-4.7414,-4.7398,-4.7476,-4.7404,-4.7409,-4.7397,-4.7393,-4.7397,-4.7489,-4.7492,-4.7494,-4.7495,0,-4.7123,-4.7116,-4.7156,-4.7196,-4.7229,-4.7259,-4.7285,-4.7311,-4.7292,-4.7328,-4.7378,-4.7406,-4.7462,-4.7507,-4.7546,-4.7555,-4.7522,-4.7519,-4.7536,-4.7542,-4.7544,-4.7542,-4.7309,-4.7513,-4.7511,-4.751,-4.7509,-4.7508,-4.7252,-4.7298,-4.7318,-4.7364,-4.7382,-4.7408,-4.7451,-4.7453,-4.7494,-4.7538,-4.7524,-4.7581,-4.7602,-4.765,-4.7664,-4.7709,-4.7679,-4.7705,-4.771,-4.7716,-4.7724,-4.754,-4.7716,-4.7716,-4.7715,-4.7715,-4.7714,0,-4.7425,-4.7437,-4.748,-4.7519,-4.7556,-4.7524,-4.7552,-4.7585,-4.7636,-4.7658,-4.7695,-4.7753,-4.7798,-4.7803,-4.7845,-4.7881,-4.7867,-4.7892,-4.7888,-4.789,-4.7749,-4.7729,-4.7903,-4.7903,-4.7903,-4.7903,-4.7903,-4.7903,-4.752,-4.7595,-4.7591,-4.7675,-4.7686,-4.7742,-4.7761,-4.7785,-4.7802,-4.787,-4.7907,-4.791,-4.7926,-4.797,-4.801,-4.801,-4.8027,-4.8058,-4.8052,-4.7919,-4.79,-4.7882,-4.7863,-4.8062,-4.8062,-4.8189,-4.819,-4.8191]},{"header":{"parameterUnit":"m.s-1","parameterCategory":1,"la1":30.2991,"la2":30.254,"lo1":-89.0895,"lo2":-89.0444,"dy":0.0017,"dx":0.0017,"nx":28,"ny":28,"refTime":"2024-03-13T09:00:00:Z","depth":0,"parameterNumber":3,"parameterNumberName":"V-component_of_WINDS"},"data":[0,0,0,0,0,0,0,0,0,0,0,0,0,0,0,0,0,0,0,0,0,0,0,0,0,0,0,0,0,0,0,0,0,0,0,0,0,0,0,0,0,0,0,0,0,0,0,0,0,0,0,0,0,0,0,0,0,0,0.2434,0.2434,0,0.2428,0.2428,0.2428,0.2424,0.2424,0.2424,0.2424,0.2418,0.2417,0.2417,0,0,0,0,0,0,0,0,0,0,0,0,0,0.2445,0.2444,0.2434,0.2434,0.2434,0.2428,0.2428,0.2428,0.2424,0.2424,0.2424,0.2424,0.2418,0.2417,0.2417,0,0,0,0,0,0,0,0,0,0,0,0,0,0.2439,0.2444,0.2434,0.2431,0.2431,0.2428,0.2428,0.2428,0.2424,0.2424,0.2424,0.2424,0.2418,0.2417,0.2417,0.2417,0,0,0.2417,0.2417,0,0,0,0,0,0,0,0,0.244,0.2439,0.2432,0.2431,0.2431,0.2427,0.243,0.2424,0.2424,0.2426,0.2424,0.2424,0.2421,0.242,0.2419,0.2417,0.2417,0.2417,0.2417,0.2416,0.2416,0,0,0,0,0,0,0,0.244,0.2439,0.2432,0.2432,0.2431,0.2431,0.243,0.2429,0.2424,0.2426,0.2426,0.2425,0.242,0.2419,0.2419,0.2416,0.2417,0.2416,0.2416,0.2416,0.2417,0.2417,0,0,0,0,0,0,0.2441,0.244,0.2432,0.2432,0.2435,0.2431,0.243,0.2428,0.2424,0.2423,0.2425,0.2425,0.242,0.2419,0.2419,0.242,0.2416,0.2416,0.2416,0.2417,0.2417,0.2417,0,0,0,0,0,0,0.2441,0.244,0.2432,0.2436,0.2435,0.2431,0.2429,0.2428,0.2427,0.2423,0.2423,0.2425,0.242,0.2419,0.2418,0.242,0.2416,0.2416,0.2417,0.2417,0.2417,0.2422,0,0,0,0,0,0,0.2441,0.244,0.2439,0.2436,0.2434,0.2431,0.2429,0.2428,0.2427,0.2426,0.2423,0.2422,0.242,0.2419,0.2418,0.2419,0.2416,0.2417,0.2417,0.2417,0.2421,0.2422,0.2422,0,0,0,0,0,0.2442,0.244,0.2439,0.2438,0.2433,0.2431,0.243,0.2428,0.2427,0.2426,0.2425,0.2422,0.242,0.2419,0.2418,0.2419,0.2416,0.2417,0.2417,0.2421,0.2422,0.2422,0,0,0,0,0,0,0.2443,0.2439,0.2438,0.2435,0.2434,0.243,0.2429,0.2428,0.2427,0.2426,0.2423,0.2422,0.2422,0.2421,0.2419,0.2421,0.2418,0.2418,0.2421,0.2422,0.2423,0.2423,0.2416,0,0,0,0,0,0.2443,0.2441,0.2438,0.2436,0.2436,0.2433,0.2432,0.243,0.2428,0.2427,0.2425,0.2424,0.2423,0.2423,0.2421,0.2422,0.2422,0.2422,0.2423,0.2424,0.2424,0.2426,0.2427,0.2418,0.2418,0.2418,0,0,0.2443,0.2441,0.244,0.2437,0.2435,0.2434,0.2432,0.2431,0.2431,0.2427,0.2427,0.2426,0.2424,0.2424,0.2424,0.2423,0.2426,0.2424,0.2424,0.2424,0.2426,0.2427,0.2428,0.2418,0.2418,0.2418,0,0,0.2442,0.244,0.2439,0.2438,0.2437,0.2435,0.2435,0.2433,0.2432,0.2432,0.243,0.2431,0.2429,0.2428,0.2428,0.2431,0.243,0.2431,0.2434,0.2436,0.2437,0.2438,0.244,0.2441,0.2431,0.2431,0.2431,0,0.2442,0.244,0.2439,0.2438,0.2438,0.2436,0.2436,0.2435,0.2433,0.2434,0.2432,0.2432,0.2431,0.2432,0.2433,0.2433,0.2434,0.2431,0.2437,0.2438,0.2438,0.2441,0.2441,0.2432,0.2432,0.2432,0.2432,0,0.2441,0.2441,0.244,0.2439,0.2439,0.2439,0.2438,0.2438,0.2438,0.2437,0.2438,0.2437,0.2437,0.2437,0.2436,0.244,0.2439,0.2437,0.2435,0.2439,0.2442,0.2442,0.2432,0.2432,0.2432,0.2432,0,0,0.2439,0.244,0.2439,0.244,0.244,0.244,0.2441,0.2441,0.2442,0.2442,0.2443,0.2443,0.2443,0.2443,0.2442,0.2444,0.2449,0.2442,0.2442,0.2445,0.2455,0.2456,0.2457,0.2448,0.2449,0.2449,0.2455,0,0.2438,0.2439,0.244,0.2441,0.2441,0.2442,0.2443,0.2444,0.2444,0.2445,0.2446,0.2447,0.2445,0.2445,0.2447,0.2448,0.2451,0.2447,0.2451,0.2451,0.2451,0.2458,0.2459,0.2465,0.2456,0.2456,0.2456,0,0.2437,0.2439,0.244,0.2443,0.2443,0.2444,0.2446,0.2447,0.2449,0.2449,0.245,0.245,0.2453,0.2451,0.2455,0.2453,0.2455,0.2456,0.2456,0.2456,0.2454,0.2459,0.2467,0.2468,0.2458,0.2457,0.2457,0,0.2437,0.2439,0.2441,0.2441,0.2444,0.2445,0.2446,0.2448,0.2449,0.2452,0.2453,0.2455,0.2456,0.2459,0.246,0.2458,0.2465,0.2463,0.2466,0.2466,0.2467,0.2467,0.2476,0.2468,0.2468,0.2468,0.2468,0,0.2436,0.2438,0.2441,0.2442,0.2444,0.2446,0.2448,0.2449,0.2452,0.2454,0.2455,0.2457,0.2458,0.2461,0.2463,0.2467,0.2468,0.2469,0.2469,0.2469,0.2469,0.247,0.2469,0.2468,0.2468,0.2468,0.2468,0,0.2435,0.2437,0.244,0.2443,0.2444,0.2446,0.2449,0.2451,0.2453,0.2456,0.2457,0.246,0.2464,0.2466,0.247,0.2471,0.2477,0.2476,0.2476,0.2476,0.248,0.248,0.249,0.2492,0.2482,0.2482,0.2482,0,0.2435,0.2436,0.2441,0.2443,0.2444,0.2447,0.2449,0.2452,0.2454,0.2458,0.246,0.2464,0.2468,0.2474,0.2477,0.2481,0.2482,0.2485,0.2482,0.2483,0.2483,0.2483,0.2484,0.2485,0.2485,0.2485,0.2485,0,0.2434,0.2436,0.2439,0.2443,0.2446,0.2449,0.2452,0.2454,0.2457,0.246,0.2465,0.2468,0.2474,0.2479,0.2484,0.2486,0.2487,0.2487,0.2488,0.2487,0.2488,0.2489,0.2478,0.2486,0.2486,0.2486,0.2486,0.2486,0.2434,0.2436,0.244,0.2444,0.2448,0.2452,0.2455,0.2458,0.2462,0.2467,0.2469,0.2474,0.2479,0.2486,0.2489,0.2494,0.2493,0.2495,0.2495,0.2495,0.2496,0.2487,0.2495,0.2495,0.2495,0.2495,0.2495,0,0.2434,0.2438,0.2442,0.2447,0.2451,0.2453,0.2457,0.2461,0.2465,0.247,0.2474,0.2481,0.2487,0.2491,0.2497,0.2501,0.2502,0.2502,0.2502,0.2503,0.2496,0.2495,0.2502,0.2502,0.2502,0.2502,0.2502,0.2502,0.2434,0.2439,0.2442,0.2449,0.2453,0.2459,0.2462,0.2466,0.247,0.2478,0.2483,0.2486,0.2492,0.2499,0.2505,0.2506,0.2508,0.251,0.2511,0.2504,0.2503,0.2502,0.2501,0.251,0.251,0.2518,0.2518,0.2518]}]]